This is the latest recevied weather packets stored in our database for station/object YB3RDW-13. If no packets are shown the sender has not sent any weather packets the latest 1 day(s).
| Time | Temp. | Humidity | Pressure | Rain* | Wind** | Luminosity | Snow |
|---|---|---|---|---|---|---|---|
| 1836274644 | 32.22° C | 62% | 1014 hPa | 0 mm | 1.34 m/s, 28° | 865 W/m² | - |
| 1836274494 | 32.78° C | 59% | 1014 hPa | 0 mm | 3.13 m/s, 21° | 868 W/m² | - |
| 1836274344 | 32.78° C | 62% | 1014 hPa | 0 mm | 0.89 m/s, 71° | 236 W/m² | - |
| 1836274194 | 32.22° C | 61% | 1014 hPa | 0 mm | 2.24 m/s, 78° | 847 W/m² | - |
| 1836274044 | 32.78° C | 61% | 1014 hPa | 0 mm | 2.68 m/s, 334° | 452 W/m² | - |
| 1778074317 | 29.44° C | 80% | 1012 hPa | 0 mm | 1.79 m/s, 311° | 0 W/m² | - |
| 1778074017 | 29.44° C | 80% | 1012 hPa | 0 mm | 1.79 m/s, 296° | 0 W/m² | - |
| 1778073718 | 29.44° C | 80% | 1012 hPa | 0 mm | 3.13 m/s, 220° | 0 W/m² | - |
| 1778073420 | 29.44° C | 79% | 1012 hPa | 0 mm | 3.13 m/s, 289° | 0 W/m² | - |
| 1778073118 | 29.44° C | 79% | 1012 hPa | 0 mm | 2.24 m/s, 14° | 0 W/m² | - |
| 1778072817 | 29.44° C | 79% | 1012 hPa | 0 mm | 2.68 m/s, 327° | 0 W/m² | - |
| 1778072517 | 29.44° C | 79% | 1012 hPa | 0 mm | 2.68 m/s, 313° | 0 W/m² | - |
| 1778072218 | 29.44° C | 79% | 1012 hPa | 0 mm | 2.68 m/s, 319° | 0 W/m² | - |
| 1778071917 | 29.44° C | 78% | 1012 hPa | 0 mm | 3.58 m/s, 302° | 0 W/m² | - |
| 1778071617 | 30° C | 78% | 1012 hPa | 0 mm | 2.68 m/s, 301° | 0 W/m² | - |
| 1778071318 | 30° C | 77% | 1012 hPa | 0 mm | 1.79 m/s, 256° | 0 W/m² | - |
| 1778071018 | 30° C | 76% | 1012 hPa | 0 mm | 2.24 m/s, 181° | 0 W/m² | - |
| 1778070717 | 30° C | 75% | 1012 hPa | 0 mm | 2.68 m/s, 308° | 0 W/m² | - |
| 1778070418 | 30° C | 74% | 1011 hPa | 0 mm | 1.34 m/s, 323° | 0 W/m² | - |
| 1778070118 | 30° C | 74% | 1011 hPa | 0 mm | 2.24 m/s, 277° | 0 W/m² | - |
| 1778069817 | 30° C | 73% | 1011 hPa | 0 mm | 3.58 m/s, 317° | 0 W/m² | - |
| 1778069517 | 30° C | 73% | 1011 hPa | 0 mm | 2.24 m/s, 118° | 0 W/m² | - |
| 1778069217 | 30° C | 73% | 1011 hPa | 0 mm | 2.24 m/s, 268° | 0 W/m² | - |
| 1778068917 | 30° C | 72% | 1011 hPa | 0 mm | 1.34 m/s, 319° | 0 W/m² | - |
| 1778068617 | 30° C | 72% | 1010 hPa | 0 mm | 2.68 m/s, 271° | 0 W/m² | - |
* Rain latest hour (hover to see other rain measurements)
** Current wind speed in m/s (hover to see current wind gust speed)